[[{"header":{"parameterUnit":"m.s-1","parameterCategory":1,"la1":30.2991,"la2":30.254,"lo1":-89.0895,"lo2":-89.0444,"dy":0.0017,"dx":0.0017,"nx":28,"ny":28,"refTime":"2024-03-04T09:00:00:Z","depth":0,"parameterNumber":2,"parameterNumberName":"U-component_of_WINDS"},"data":[0,0,0,0,0,0,0,0,0,0,0,0,0,0,0,0,0,0,0,0,0,0,0,0,0,0,0,0,0,0,0,0,0,0,0,0,0,0,0,0,0,0,0,0,0,0,0,0,0,0,0,0,0,0,0,0,0,0,2.7044,2.7044,0,2.7103,2.7104,2.7104,2.7045,2.7043,2.704,2.7038,2.7103,2.7106,2.711,0,0,0,0,0,0,0,0,0,0,0,0,0,2.6883,2.6886,2.7043,2.7044,2.7045,2.7103,2.7104,2.7104,2.7045,2.7043,2.704,2.7037,2.7101,2.7106,2.7111,0,0,0,0,0,0,0,0,0,0,0,0,0,2.6949,2.6887,2.7043,2.7022,2.7021,2.7103,2.7104,2.7105,2.7046,2.7043,2.7039,2.7036,2.71,2.7106,2.7111,2.7217,0,0,2.7129,2.7132,0,0,0,0,0,0,0,0,2.6945,2.6955,2.7025,2.7024,2.7023,2.7063,2.7071,2.7143,2.7047,2.7037,2.7038,2.7034,2.7093,2.7099,2.7118,2.722,2.7223,2.713,2.7133,2.7136,2.7137,0,0,0,0,0,0,0,2.6941,2.6952,2.7067,2.7026,2.7025,2.7011,2.7017,2.7084,2.7084,2.7037,2.7033,2.7041,2.7091,2.7112,2.7119,2.7224,2.713,2.7135,2.7138,2.7141,2.7419,2.7422,0,0,0,0,0,0,2.6938,2.6948,2.7065,2.7069,2.6974,2.7017,2.7023,2.7054,2.7083,2.7084,2.7044,2.7038,2.7104,2.7112,2.7121,2.7248,2.7136,2.7141,2.7145,2.7415,2.742,2.7424,0,0,0,0,0,0,2.6935,2.6949,2.7063,2.7008,2.7021,2.7024,2.7058,2.7057,2.7077,2.7088,2.7088,2.7065,2.7101,2.7113,2.7194,2.7249,2.7144,2.7149,2.741,2.7416,2.7422,2.7502,0,0,0,0,0,0,2.693,2.6948,2.6987,2.7009,2.7024,2.7134,2.7062,2.706,2.7087,2.708,2.7107,2.7109,2.71,2.7186,2.72,2.7255,2.7154,2.7405,2.7413,2.742,2.7495,2.751,2.7524,0,0,0,0,0,2.6925,2.7008,2.699,2.7004,2.7073,2.7137,2.7146,2.7133,2.7092,2.7132,2.7139,2.7108,2.7241,2.7194,2.721,2.7268,2.7402,2.7411,2.7419,2.7488,2.7507,2.7523,0,0,0,0,0,0,2.6994,2.701,2.699,2.7083,2.7109,2.7127,2.7177,2.7153,2.7192,2.7184,2.7167,2.7174,2.726,2.7272,2.722,2.7373,2.7315,2.7327,2.7362,2.738,2.7394,2.739,2.7158,0,0,0,0,0,2.702,2.7069,2.7081,2.7162,2.7176,2.7175,2.7202,2.719,2.7217,2.7228,2.724,2.7269,2.7317,2.7349,2.7394,2.7496,2.7502,2.7544,2.7559,2.757,2.7581,2.7638,2.7657,2.7453,2.7452,2.7452,0,0,2.7074,2.7089,2.7121,2.7176,2.7195,2.7248,2.7184,2.7243,2.7282,2.7237,2.7314,2.7325,2.7356,2.7448,2.749,2.7461,2.7639,2.7581,2.7591,2.7595,2.7649,2.7668,2.7685,2.7458,2.7457,2.7456,0,0,2.7199,2.7215,2.7285,2.7305,2.7334,2.7333,2.735,2.7372,2.7377,2.7454,2.7422,2.7469,2.7552,2.7576,2.7599,2.7735,2.7709,2.775,2.7826,2.7881,2.7897,2.7911,2.7961,2.7979,2.7761,2.7761,2.7762,0,2.7263,2.734,2.7324,2.7385,2.7411,2.7371,2.7442,2.7463,2.7506,2.7526,2.7492,2.7597,2.7615,2.7713,2.7746,2.7766,2.7786,2.7747,2.7896,2.791,2.7923,2.797,2.7989,2.7766,2.7766,2.7765,2.7765,0,2.7418,2.7472,2.7525,2.7567,2.7599,2.7664,2.7659,2.7694,2.7679,2.7682,2.7762,2.7782,2.7831,2.7853,2.784,2.7951,2.7932,2.7898,2.7839,2.7947,2.7992,2.8009,2.7774,2.7772,2.777,2.7769,0,0,2.7588,2.762,2.764,2.7659,2.7689,2.7731,2.7796,2.7843,2.7874,2.7905,2.796,2.8032,2.8001,2.8027,2.8016,2.8064,2.8172,2.8024,2.8025,2.8052,2.8297,2.8323,2.8344,2.8155,2.8158,2.8161,2.8295,0,2.7715,2.7826,2.7814,2.7921,2.7972,2.7936,2.7993,2.8018,2.8023,2.8068,2.8073,2.8125,2.8079,2.8095,2.8141,2.8149,2.8222,2.814,2.8207,2.821,2.8201,2.8367,2.8394,2.8519,2.8312,2.8315,2.8317,0,2.7878,2.7915,2.8026,2.805,2.8071,2.8122,2.8164,2.8207,2.8236,2.8236,2.8266,2.8247,2.8314,2.8254,2.8347,2.8291,2.8318,2.8327,2.8331,2.8338,2.827,2.8378,2.8559,2.8578,2.8344,2.8341,2.8339,0,2.7992,2.8069,2.8146,2.8164,2.8193,2.823,2.8244,2.8269,2.8298,2.8336,2.8356,2.8401,2.8427,2.8463,2.8458,2.8414,2.8553,2.8492,2.8556,2.8557,2.8587,2.8585,2.8775,2.8604,2.8604,2.8603,2.8603,0,2.8135,2.8205,2.8198,2.8246,2.8324,2.831,2.8388,2.8397,2.842,2.847,2.8443,2.849,2.848,2.8528,2.8524,2.8603,2.8614,2.8617,2.8616,2.862,2.862,2.8638,2.8629,2.8608,2.8607,2.8606,2.8605,0,2.8275,2.8273,2.8355,2.8376,2.8383,2.844,2.8458,2.8504,2.8507,2.857,2.8585,2.859,2.8645,2.8643,2.8706,2.8703,2.88,2.8788,2.879,2.8788,2.8852,2.8847,2.9061,2.9089,2.8899,2.8901,2.8902,0,2.8367,2.842,2.8447,2.8478,2.8494,2.8545,2.8575,2.8564,2.8596,2.8634,2.8676,2.8728,2.8769,2.886,2.887,2.8918,2.8908,2.8979,2.8915,2.8918,2.891,2.8907,2.8913,2.8992,2.8994,2.8996,2.8998,0,2.8531,2.8527,2.8571,2.8615,2.8651,2.8686,2.8717,2.8745,2.8737,2.8776,2.8831,2.8863,2.8928,2.8981,2.9027,2.9043,2.902,2.9018,2.9035,2.9041,2.904,2.9042,2.8825,2.9013,2.9011,2.901,2.9009,2.9009,2.865,2.8696,2.8722,2.8772,2.8795,2.8825,2.8869,2.8878,2.8924,2.8974,2.8966,2.9028,2.9058,2.9118,2.9138,2.9188,2.9163,2.9188,2.9195,2.9201,2.9209,2.9032,2.9197,2.9196,2.9196,2.9195,2.9195,0,2.8812,2.8828,2.8874,2.8919,2.8959,2.8932,2.8966,2.9002,2.9057,2.9086,2.9127,2.9192,2.9244,2.9259,2.9309,2.9346,2.9337,2.936,2.9357,2.9362,2.9228,2.9208,2.9367,2.9367,2.9367,2.9366,2.9366,2.9366,2.8901,2.8978,2.8978,2.9067,2.9082,2.9142,2.9164,2.9193,2.9216,2.9289,2.9332,2.934,2.9364,2.9416,2.9463,2.9466,2.9486,2.9514,2.9513,2.9388,2.9371,2.9354,2.9336,2.9518,2.9518,2.9642,2.9643,2.9644]},{"header":{"parameterUnit":"m.s-1","parameterCategory":1,"la1":30.2991,"la2":30.254,"lo1":-89.0895,"lo2":-89.0444,"dy":0.0017,"dx":0.0017,"nx":28,"ny":28,"refTime":"2024-03-04T09:00:00:Z","depth":0,"parameterNumber":3,"parameterNumberName":"V-component_of_WINDS"},"data":[0,0,0,0,0,0,0,0,0,0,0,0,0,0,0,0,0,0,0,0,0,0,0,0,0,0,0,0,0,0,0,0,0,0,0,0,0,0,0,0,0,0,0,0,0,0,0,0,0,0,0,0,0,0,0,0,0,0,2.2355,2.2355,0,2.2386,2.2386,2.2386,2.2401,2.2401,2.2401,2.2401,2.243,2.243,2.2431,0,0,0,0,0,0,0,0,0,0,0,0,0,2.2306,2.2307,2.2355,2.2355,2.2356,2.2386,2.2386,2.2387,2.2401,2.2401,2.2401,2.2401,2.2429,2.243,2.2431,0,0,0,0,0,0,0,0,0,0,0,0,0,2.2331,2.2308,2.2355,2.2367,2.2368,2.2386,2.2386,2.2387,2.2401,2.2401,2.2401,2.2401,2.2429,2.243,2.2431,2.2438,0,0,2.2435,2.2435,0,0,0,0,0,0,0,0,2.233,2.2333,2.2365,2.2366,2.2368,2.239,2.2379,2.2404,2.2401,2.2389,2.2401,2.2401,2.2416,2.2418,2.2424,2.244,2.2441,2.2435,2.2436,2.2436,2.2437,0,0,0,0,0,0,0,2.2328,2.2332,2.2367,2.2365,2.2367,2.237,2.2373,2.2384,2.2402,2.239,2.2391,2.2394,2.2417,2.2423,2.2425,2.2441,2.2435,2.2436,2.2437,2.2437,2.2464,2.2464,0,0,0,0,0,0,2.2325,2.233,2.2366,2.2368,2.2348,2.2371,2.2375,2.2383,2.2402,2.2405,2.2394,2.2395,2.2421,2.2424,2.2426,2.2435,2.2436,2.2437,2.2438,2.2464,2.2464,2.2464,0,0,0,0,0,0,2.2324,2.2328,2.2365,2.235,2.2354,2.2371,2.238,2.2383,2.2389,2.2406,2.2408,2.2397,2.2421,2.2424,2.2435,2.2437,2.2438,2.2439,2.2464,2.2464,2.2464,2.2454,0,0,0,0,0,0,2.2322,2.2327,2.2331,2.235,2.2355,2.2375,2.238,2.2384,2.2391,2.2393,2.2409,2.2412,2.2421,2.2434,2.2437,2.2438,2.244,2.2464,2.2464,2.2464,2.2455,2.2454,2.2454,0,0,0,0,0,2.2321,2.2327,2.2331,2.2335,2.236,2.2375,2.2378,2.239,2.2392,2.2395,2.2405,2.2411,2.2436,2.2435,2.2438,2.244,2.2464,2.2464,2.2464,2.2455,2.2454,2.2454,0,0,0,0,0,0,2.2307,2.2329,2.2335,2.2347,2.2359,2.2377,2.2382,2.2389,2.24,2.24,2.2413,2.2417,2.2426,2.2434,2.2432,2.2448,2.245,2.2451,2.2442,2.2442,2.2441,2.2439,2.2441,0,0,0,0,0,2.2305,2.2316,2.2335,2.2344,2.235,2.2365,2.2372,2.238,2.2392,2.2397,2.2408,2.2419,2.243,2.2436,2.2446,2.2456,2.2459,2.2459,2.2458,2.2458,2.2458,2.2463,2.2463,2.2464,2.2464,2.2464,0,0,2.2302,2.2316,2.2322,2.2342,2.2352,2.2362,2.2369,2.2379,2.2387,2.2398,2.241,2.2418,2.2431,2.2442,2.2447,2.2449,2.2459,2.2458,2.2457,2.2458,2.2464,2.2463,2.2463,2.2464,2.2464,2.2464,0,0,2.2302,2.2313,2.2322,2.2333,2.2348,2.2358,2.236,2.2378,2.2384,2.2396,2.2405,2.2413,2.2431,2.244,2.2447,2.2449,2.2455,2.2452,2.2449,2.2454,2.2454,2.2454,2.2455,2.2455,2.2453,2.2453,2.2453,0,2.2296,2.2313,2.2326,2.2336,2.2344,2.2356,2.2364,2.2373,2.2391,2.2396,2.2398,2.242,2.243,2.2442,2.2443,2.2448,2.245,2.245,2.2453,2.2454,2.2454,2.2455,2.2455,2.2452,2.2452,2.2452,2.2452,0,2.2304,2.2315,2.232,2.2339,2.2347,2.2356,2.237,2.2377,2.2384,2.2393,2.2405,2.2417,2.243,2.2433,2.244,2.2447,2.2447,2.2451,2.2454,2.2453,2.2454,2.2454,2.2451,2.2452,2.2452,2.2452,0,0,2.2296,2.2322,2.2323,2.2332,2.235,2.2358,2.2367,2.2381,2.2387,2.2398,2.2406,2.242,2.2424,2.2432,2.244,2.2444,2.2445,2.2447,2.2448,2.2446,2.2453,2.245,2.245,2.2449,2.2449,2.2449,2.2452,0,2.2298,2.2317,2.2329,2.2342,2.2353,2.2364,2.2372,2.2383,2.2392,2.2401,2.241,2.2421,2.2425,2.2429,2.2434,2.2444,2.2447,2.2444,2.2456,2.2456,2.2452,2.2451,2.2448,2.2449,2.2452,2.2452,2.2452,0,2.2304,2.2316,2.2331,2.2348,2.2352,2.236,2.2373,2.2382,2.2395,2.2401,2.2409,2.2417,2.2426,2.2429,2.2441,2.2439,2.2445,2.245,2.245,2.2452,2.2454,2.2452,2.245,2.245,2.2453,2.2453,2.2453,0,2.2296,2.2317,2.2328,2.2335,2.2355,2.2359,2.2368,2.2381,2.2388,2.2399,2.2404,2.2416,2.2422,2.243,2.2441,2.2441,2.2452,2.2455,2.2457,2.2457,2.2459,2.2459,2.2458,2.2462,2.2462,2.2462,2.2462,0,2.2298,2.2306,2.2325,2.2332,2.2342,2.2355,2.2364,2.2373,2.2384,2.2392,2.2402,2.2409,2.2423,2.2431,2.2439,2.2448,2.2451,2.2456,2.2458,2.2455,2.2454,2.2459,2.2459,2.2462,2.2462,2.2462,2.2462,0,2.2291,2.2304,2.2318,2.2336,2.234,2.2347,2.2361,2.2368,2.2377,2.2388,2.2391,2.2405,2.2416,2.2427,2.2441,2.2447,2.2455,2.2458,2.2451,2.2453,2.2454,2.2453,2.2456,2.2456,2.246,2.246,2.246,0,2.2291,2.2298,2.2317,2.2324,2.2332,2.2343,2.2351,2.2363,2.2371,2.2386,2.2391,2.2402,2.2412,2.2429,2.244,2.245,2.2454,2.2454,2.2455,2.2452,2.2453,2.2453,2.2454,2.2453,2.2453,2.2453,2.2453,0,2.229,2.2296,2.2308,2.2321,2.233,2.2341,2.2352,2.2357,2.2372,2.2379,2.2391,2.2399,2.2414,2.2425,2.2437,2.2445,2.2451,2.2452,2.2453,2.245,2.2446,2.2448,2.245,2.2452,2.2452,2.2452,2.2452,2.2452,2.2287,2.2293,2.2308,2.232,2.233,2.234,2.2348,2.2358,2.2368,2.2382,2.2389,2.24,2.2412,2.2429,2.2436,2.2445,2.2447,2.2448,2.2449,2.2449,2.2448,2.2445,2.2447,2.2447,2.2447,2.2447,2.2447,0,2.2286,2.2296,2.2307,2.2323,2.2332,2.2338,2.2351,2.2358,2.2368,2.2379,2.2389,2.2402,2.2413,2.2425,2.2436,2.2441,2.2444,2.2443,2.2443,2.2445,2.2446,2.2444,2.244,2.244,2.244,2.244,2.244,2.244,2.2287,2.2298,2.2306,2.2322,2.2332,2.2344,2.2351,2.236,2.2369,2.2383,2.2393,2.2401,2.2412,2.2424,2.2434,2.2437,2.2441,2.2439,2.2443,2.2444,2.2444,2.2445,2.2443,2.244,2.244,2.2441,2.2441,2.2441]}]]